Torna al catalogo

STARLINK-37044

AttivoComunicazioniVLEO
NORAD 68247·PAYLOAD·🇺🇸 United States

Lanciato Mar 17, 2026 da Vandenberg Space Force Base

Loading…

Prossimi Passaggi (prossime 24 ore)

TLE

AggiornatoSource: CelesTrak SupGP

Epoca: Sep 14, 2026, 21:00 UTC

1 68247C 26054R   26257.87548611 -.00036880  00000+0 -10897-2 0  2576
2 68247  53.1568 127.8829 0001292  81.5210 189.8793 15.34406037    14

Traccia STARLINK-37044 in tempo reale con AllMySat

Download on the App Store